When you browse on this site, cookies collect data to enhance your experience and personalize the content and advertising you see.
Visit our Privacy Policy to learn more. By continuing to use the site, you agree to this use of cookies and data.
  • In Switzerland
  • List of Countries
  • For 7 days
  • Water Temperature
  • Satellite Maps
  • Weather Map
  • Weather Widgets
  • user-avatar
    Login

    Hourly Weather Uige

    Today, 22 March, Friday

    Time Temperature Precipitation Wind Pressure Humidity
    00:00 +21°C° 0.5 mm 0 mps 690 mmHg 89%
    01:00 +20°C° 0.5 mm 0 mps 689 mmHg 91%
    02:00 +20°C° 0 mm 0 mps 689 mmHg 92%
    03:00 +20°C° 0 mm 0 mps 689 mmHg 93%
    04:00 +22°C° 0 mm 1 mps 689 mmHg 93%
    05:00 +22°C° 0 mm 1 mps 689 mmHg 93%
    06:00 +22°C° 0 mm 1 mps 690 mmHg 93%
    07:00 +23°C° 0 mm 1 mps 690 mmHg 92%
    08:00 +26°C° 0 mm 1 mps 691 mmHg 80%
    09:00 +29°C° 0 mm 1 mps 691 mmHg 68%
    10:00 +32°C° 0 mm 1 mps 692 mmHg 56%
    11:00 +33°C° 0 mm 1 mps 692 mmHg 50%
    12:00 +35°C° 0 mm 1 mps 691 mmHg 45%
    13:00 +36°C° 0 mm 1 mps 690 mmHg 40%
    14:00 +35°C° 0 mm 1 mps 690 mmHg 44%
    15:00 +32°C° 0 mm 0 mps 689 mmHg 47%
    16:00 +31°C° 0 mm 0 mps 689 mmHg 51%
    17:00 +29°C° 0 mm 0 mps 689 mmHg 56%
    18:00 +28°C° 0 mm 0 mps 689 mmHg 61%
    19:00 +28°C° 0 mm 1 mps 689 mmHg 66%
    20:00 +26°C° 1.8 mm 1 mps 689 mmHg 76%
    21:00 +23°C° 1.8 mm 0 mps 690 mmHg 85%
    22:00 +21°C° 1.8 mm 0 mps 690 mmHg 95%
    23:00 +21°C° 0.4 mm 0 mps 690 mmHg 96%

    Tomorrow, 23 March, Saturday

    Time Temperature Precipitation Wind Pressure Humidity
    00:00 +21°C° 0.4 mm 0 mps 690 mmHg 97%
    01:00 +22°C° 0.4 mm 1 mps 690 mmHg 98%
    02:00 +22°C° 0 mm 1 mps 690 mmHg 98%
    03:00 +22°C° 0 mm 1 mps 690 mmHg 98%
    04:00 +22°C° 0 mm 1 mps 689 mmHg 99%
    05:00 +22°C° 0.2 mm 1 mps 690 mmHg 98%
    06:00 +23°C° 0.2 mm 1 mps 690 mmHg 98%
    07:00 +23°C° 0.2 mm 1 mps 691 mmHg 97%
    08:00 +24°C° 0.1 mm 1 mps 691 mmHg 92%
    09:00 +26°C° 0.1 mm 1 mps 692 mmHg 87%
    10:00 +27°C° 0.1 mm 1 mps 692 mmHg 82%
    11:00 +28°C° 0.4 mm 2 mps 691 mmHg 76%
    12:00 +30°C° 0.4 mm 2 mps 691 mmHg 69%
    13:00 +31°C° 0.4 mm 2 mps 690 mmHg 63%
    14:00 +30°C° 1.4 mm 2 mps 690 mmHg 71%
    15:00 +29°C° 1.4 mm 2 mps 689 mmHg 78%
    16:00 +29°C° 1.4 mm 2 mps 689 mmHg 86%
    17:00 +27°C° 1.3 mm 2 mps 689 mmHg 89%
    18:00 +26°C° 1.3 mm 2 mps 689 mmHg 92%
    19:00 +24°C° 1.3 mm 2 mps 690 mmHg 95%
    20:00 +24°C° 1.8 mm 2 mps 690 mmHg 96%
    21:00 +23°C° 1.8 mm 2 mps 690 mmHg 97%
    22:00 +23°C° 1.8 mm 1 mps 690 mmHg 98%
    23:00 +23°C° 0 mm 1 mps 690 mmHg 98%

    Day after tomorrow, 24 March, Sunday

    Time Temperature Precipitation Wind Pressure Humidity
    00:00 +23°C° 0 mm 1 mps 690 mmHg 98%
    01:00 +24°C° 0 mm 1 mps 690 mmHg 99%
    02:00 +24°C° 0.1 mm 1 mps 690 mmHg 99%
    03:00 +24°C° 0.1 mm 1 mps 690 mmHg 98%
    04:00 +24°C° 0.1 mm 2 mps 690 mmHg 98%
    05:00 +24°C° 0.3 mm 1 mps 690 mmHg 98%
    06:00 +24°C° 0.3 mm 1 mps 690 mmHg 98%
    07:00 +23°C° 0.3 mm 1 mps 691 mmHg 98%
    08:00 +24°C° 0.6 mm 1 mps 691 mmHg 96%
    09:00 +25°C° 0.6 mm 1 mps 691 mmHg 93%
    10:00 +26°C° 0.6 mm 1 mps 691 mmHg 91%
    11:00 +28°C° 0.6 mm 1 mps 691 mmHg 79%
    12:00 +30°C° 0.6 mm 1 mps 691 mmHg 68%
    13:00 +31°C° 0.6 mm 2 mps 690 mmHg 57%
    14:00 +30°C° 0.7 mm 2 mps 690 mmHg 65%
    15:00 +29°C° 0.7 mm 2 mps 689 mmHg 74%
    16:00 +28°C° 0.7 mm 3 mps 689 mmHg 82%
    17:00 +26°C° 6 mm 2 mps 689 mmHg 87%
    18:00 +25°C° 6 mm 1 mps 690 mmHg 92%
    19:00 +21°C° 6 mm 0 mps 690 mmHg 97%
    20:00 +21°C° 3.5 mm 0 mps 691 mmHg 97%
    21:00 +23°C° 3.5 mm 1 mps 691 mmHg 98%
    22:00 +22°C° 3.5 mm 1 mps 692 mmHg 98%
    23:00 +22°C° 0 mm 1 mps 691 mmHg 98%

    25 March, Monday

    Time Temperature Precipitation Wind Pressure Humidity
    00:00 +22°C° 0 mm 1 mps 691 mmHg 98%
    01:00 +22°C° 0 mm 1 mps 690 mmHg 99%
    02:00 +21°C° 0 mm 1 mps 690 mmHg 99%
    03:00 +21°C° 0 mm 1 mps 689 mmHg 99%
    04:00 +21°C° 0 mm 1 mps 689 mmHg 99%
    05:00 +21°C° 0 mm 1 mps 690 mmHg 98%
    06:00 +22°C° 0 mm 1 mps 690 mmHg 98%
    07:00 +22°C° 0 mm 1 mps 691 mmHg 97%
    08:00 +24°C° 0 mm 1 mps 692 mmHg 87%
    09:00 +27°C° 0 mm 1 mps 692 mmHg 77%
    10:00 +29°C° 0 mm 1 mps 693 mmHg 67%
    11:00 +29°C° 0.8 mm 1 mps 692 mmHg 67%
    12:00 +30°C° 0.8 mm 1 mps 691 mmHg 67%
    13:00 +31°C° 0.8 mm 1 mps 690 mmHg 67%
    14:00 +30°C° 1.5 mm 1 mps 689 mmHg 74%
    15:00 +29°C° 1.5 mm 1 mps 689 mmHg 82%
    16:00 +28°C° 1.5 mm 1 mps 688 mmHg 89%
    17:00 +26°C° 0.4 mm 1 mps 689 mmHg 91%
    18:00 +25°C° 0.4 mm 1 mps 689 mmHg 94%
    19:00 +23°C° 0.4 mm 1 mps 690 mmHg 96%
    20:00 +23°C° 0.4 mm 1 mps 690 mmHg 96%
    21:00 +23°C° 0.4 mm 1 mps 691 mmHg 96%
    22:00 +23°C° 0.4 mm 1 mps 691 mmHg 96%
    23:00 +22°C° 0.1 mm 1 mps 691 mmHg 96%

    26 March, Tuesday

    Time Temperature Precipitation Wind Pressure Humidity
    00:00 +22°C° 0.1 mm 1 mps 691 mmHg 97%
    01:00 +22°C° 0.1 mm 1 mps 690 mmHg 98%
    02:00 +22°C° 0 mm 1 mps 690 mmHg 98%
    03:00 +22°C° 0 mm 1 mps 690 mmHg 97%
    04:00 +22°C° 0 mm 1 mps 690 mmHg 97%
    05:00 +22°C° 0 mm 1 mps 690 mmHg 96%
    06:00 +22°C° 0 mm 1 mps 690 mmHg 95%
    07:00 +22°C° 0 mm 1 mps 691 mmHg 94%
    08:00 +23°C° 0 mm 1 mps 691 mmHg 88%
    09:00 +25°C° 0 mm 1 mps 692 mmHg 82%
    10:00 +27°C° 0 mm 1 mps 692 mmHg 76%
    11:00 +28°C° 0 mm 1 mps 691 mmHg 69%
    12:00 +29°C° 0 mm 1 mps 691 mmHg 62%
    13:00 +30°C° 0 mm 1 mps 690 mmHg 55%
    14:00 +30°C° 0 mm 1 mps 690 mmHg 57%
    15:00 +29°C° 0 mm 1 mps 690 mmHg 59%
    16:00 +29°C° 0 mm 1 mps 689 mmHg 61%
    17:00 +26°C° 0 mm 0 mps 690 mmHg 66%
    18:00 +24°C° 0 mm 0 mps 690 mmHg 71%
    19:00 +22°C° 0 mm 0 mps 690 mmHg 76%
    20:00 +22°C° 0 mm 0 mps 690 mmHg 76%
    21:00 +22°C° 0 mm 0 mps 691 mmHg 77%
    22:00 +22°C° 0 mm 0 mps 691 mmHg 78%
    23:00 +21°C° 0 mm 0 mps 691 mmHg 81%

    27 March, Wednesday

    Time Temperature Precipitation Wind Pressure Humidity
    00:00 +20°C° 0 mm 0 mps 690 mmHg 83%
    01:00 +20°C° 0 mm 0 mps 690 mmHg 85%
    02:00 +19°C° 0 mm 0 mps 690 mmHg 87%
    03:00 +19°C° 0 mm 0 mps 690 mmHg 88%
    04:00 +19°C° 0 mm 0 mps 689 mmHg 90%
    05:00 +21°C° 0 mm 1 mps 690 mmHg 89%
    06:00 +22°C° 0 mm 1 mps 691 mmHg 89%
    07:00 +23°C° 0 mm 1 mps 691 mmHg 88%
    08:00 +24°C° 0 mm 0 mps 692 mmHg 77%
    09:00 +27°C° 0 mm 0 mps 693 mmHg 66%
    10:00 +30°C° 0 mm 0 mps 693 mmHg 55%
    11:00 +31°C° 0 mm 0 mps 693 mmHg 51%
    12:00 +34°C° 0 mm 1 mps 692 mmHg 46%
    13:00 +35°C° 0 mm 1 mps 691 mmHg 42%
    14:00 +35°C° 0 mm 1 mps 691 mmHg 45%
    15:00 +34°C° 0 mm 1 mps 690 mmHg 47%
    16:00 +33°C° 0 mm 1 mps 690 mmHg 50%
    17:00 +31°C° 0 mm 1 mps 690 mmHg 59%
    18:00 +29°C° 0 mm 1 mps 690 mmHg 69%
    19:00 +26°C° 0 mm 1 mps 690 mmHg 78%
    20:00 +25°C° 0.4 mm 1 mps 691 mmHg 84%
    21:00 +24°C° 0.4 mm 1 mps 691 mmHg 89%
    22:00 +24°C° 0.4 mm 1 mps 691 mmHg 94%
    23:00 +23°C° 0.3 mm 1 mps 691 mmHg 96%
    Show more